St. Croix, VI

6:27 PM AST on March 28, 2017 (GMT -0400)
Henry E Rohlsen

Weather History for TISX - December, 2012

Change the Weather History Date:

Tuesday, December 4, 2012

  Actual Average Record
Temperature  
Mean Temperature 79 °F 80 °F  
Max Temperature 85 °F 85 °F 89 °F (1972)
Min Temperature 73 °F 74 °F 65 °F (2010)
Degree Days  
Heating Degree Days 0 0  
Month to date heating degree days 0 0  
Since 1 July heating degree days 0 0  
Cooling Degree Days 14 15  
Month to date cooling degree days 56 60  
Year to date cooling degree days 4958 5457  
Growing Degree Days 28 (Base 50)    
Moisture  
Dew Point 70 °F    
Average Humidity 80    
Maximum Humidity 100    
Minimum Humidity 59    
Precipitation  
Precipitation 0.17 in 0.11 in 2.05 in (2014)
Month to date precipitation 1.58 0.46  
Year to date precipitation 28.86 36.16  
Sea Level Pressure  
Sea Level Pressure 29.94 in    
Wind  
Wind Speed 9 mph (NE)    
Max Wind Speed 20 mph    
Max Gust Speed 26 mph    
Visibility 9 miles    
Events Rain    
T = Trace of Precipitation, MM = Missing Value Source: NWS Daily Summary

Daily Weather History Graph

Daily Weather History Graph

Search for Another Location

Airport or City:

Trip Planner

Search our weather history database for the weather conditions in past years. The results will help you decide how hot, cold, wet, or windy it might be!

Date:

Astronomy

Dec. 04, 2012 Rise Set
Actual Time 6:35 AM AST 5:43 PM AST
Civil Twilight 6:12 AM AST 6:06 PM AST
Nautical Twilight 5:45 AM AST 6:33 PM AST
Astronomical Twilight 5:18 AM AST 7:00 PM AST
Moon 10:54 PM AST (12/4) 10:55 AM AST (12/4)
Length of Visible Light 11h 54m
Length of Day
11h 07m
Waning Gibbous, 70% of the Moon is Illuminated
Dec 4
Waning Gibbous
Dec 6
Last Quarter
Dec 13
New
Dec 20
First Quarter
Dec 28
Full

Hourly Weather History & Observations

Time (AST) Temp. Heat Index Dew Point Humidity Pressure Visibility Wind Dir Wind Speed Gust Speed Precip Events Conditions
12:53 AM 75.0 °F - 72.0 °F 90% 29.94 in 5.0 mi NE 9.2 mph - 0.02 in Rain Light Rain
1:03 AM 73.4 °F - 71.6 °F 94% 29.93 in 2.5 mi North 10.4 mph 17.3 mph 0.07 in Rain Heavy Rain
1:13 AM 73.4 °F - 71.6 °F 94% 29.93 in 2.0 mi North 9.2 mph 16.1 mph 0.13 in Rain Heavy Rain
1:18 AM 73.4 °F - 71.6 °F 94% 29.93 in 4.0 mi North 11.5 mph 16.1 mph 0.13 in Rain Rain
1:53 AM 73.9 °F - 71.1 °F 91% 29.93 in 10.0 mi NE 10.4 mph 19.6 mph 0.14 in Rain Light Rain
2:53 AM 73.0 °F - 71.1 °F 93% 29.90 in 10.0 mi NE 4.6 mph - 0.01 in   Overcast
3:53 AM 73.9 °F - 73.0 °F 97% 29.89 in 10.0 mi Calm Calm - 0.00 in   Overcast
4:53 AM 73.9 °F - 69.1 °F 85% 29.90 in 10.0 mi NNE 6.9 mph - N/A   Mostly Cloudy
6:53 AM 75.9 °F - 68.0 °F 76% 29.93 in 10.0 mi NE 8.1 mph - 0.00 in   Partly Cloudy
7:53 AM 79.0 °F - 69.1 °F 72% 29.94 in 10.0 mi NE 9.2 mph - N/A   Partly Cloudy
8:53 AM 81.0 °F 84.4 °F 70.0 °F 69% 29.97 in 10.0 mi NE 15.0 mph 21.9 mph N/A   Partly Cloudy
9:53 AM 82.9 °F 87.0 °F 70.0 °F 65% 29.99 in 10.0 mi NE 9.2 mph 25.3 mph N/A   Scattered Clouds
10:53 AM 84.0 °F 88.4 °F 70.0 °F 63% 29.98 in 10.0 mi NE 16.1 mph 25.3 mph N/A   Partly Cloudy
11:53 AM 84.0 °F 87.8 °F 69.1 °F 61% 29.96 in 10.0 mi ENE 16.1 mph 21.9 mph N/A   Partly Cloudy
12:53 PM 84.0 °F 87.8 °F 69.1 °F 61% 29.95 in 10.0 mi NE 12.7 mph 21.9 mph N/A   Partly Cloudy
1:53 PM 84.9 °F 88.8 °F 69.1 °F 59% 29.93 in 10.0 mi ENE 13.8 mph 24.2 mph N/A   Partly Cloudy
2:53 PM 84.0 °F 87.0 °F 68.0 °F 58% 29.91 in 10.0 mi NE 15.0 mph 21.9 mph N/A   Partly Cloudy
3:53 PM 82.9 °F 85.8 °F 68.0 °F 60% 29.91 in 10.0 mi ENE 15.0 mph 20.7 mph N/A   Partly Cloudy
7:53 PM 78.1 °F - 68.0 °F 71% 29.95 in 10.0 mi NE 6.9 mph - N/A   Clear
8:53 PM 78.1 °F - 68.0 °F 71% 29.96 in 10.0 mi NE 6.9 mph - N/A   Clear
9:53 PM 78.1 °F - 69.1 °F 74% 29.97 in 10.0 mi NE 6.9 mph - N/A   Scattered Clouds
10:53 PM 77.0 °F - 68.0 °F 74% 29.97 in 10.0 mi NE 5.8 mph - N/A   Partly Cloudy
11:53 PM 77.0 °F - 68.0 °F 74% 29.96 in 10.0 mi NE 5.8 mph - N/A   Clear